Back to catalog

COSMOS 1823 DEB

AliveLEO
NORAD 39805·DEBRIS·🇷🇺 Russia

Launched Feb 20, 1987 from Plesetsk Cosmodrome

Loading…

Next Passes (next 24 hours)

TLE

AgingSource: Space-Track

Epoch: Sep 9, 2026, 10:28 UTC

1 39805U 87020ED  26252.43639380 -.00000015  00000-0  17667-4 0  9993
2 39805  73.5942 236.8863 0021327 103.8017  51.6140 12.42658610556624

Track COSMOS 1823 DEB in real time with AllMySat

Download on the App Store